Regional Weather Roundup
Issued by NWS New Orleans/Baton Rouge, LA

Home | Current Version | Previous Version | Graphics & Text | Print | Product List | Glossary On
Versions: 1 2 3 4 5 6 7 8 9 10 11 12 13 14 15 16 17 18 19 20 21 22 23 24 25 26 27 28 29 30 31 32 33 34 35 36 37 38 39 40 41 42 43 44 45 46 47 48 49 50
949
ASUS44 KLIX 271410
RWRLIX
NEW ORLEANS REGIONAL WEATHER ROUNDUP
NATIONAL WEATHER SERVICE NEW ORLEANS LA
900 AM CDT WED AUG 27 2014

NOTE: "FAIR" INDICATES FEW OR NO CLOUDS BELOW 12,000 FEET WITH NO
      SIGNIFICANT WEATHER AND/OR OBSTRUCTIONS TO VISIBILITY.
      SKY/WX - SKY CONDITION AND SIGNIFICANT WEATHER.
      TMP - AIR TEMPERATURE.     DP    - DEWPOINT TEMPERATURE.
      RH  - RELATIVE HUMIDITY.   PRES  - PRESSURE.
      HI  - HEAT INDEX.          WCI   - WIND CHILL INDEX.

*  THESE STATIONS ARE NOT NWS OR FAA STATIONS AND ARE NOT UNDER
   NWS QUALITY CONTROL.

LAZ038-040-048-061>063-065>067-069-271500-
SOUTHEAST LOUISIANA

CITY           SKY/WX    TMP DP  RH WIND       PRES   REMARKS
N.O. AUDUBON     N/A     88  76  66 MISG        N/A  HX  98
N.O. INTL ARPT MOSUNNY   85  75  72 NE13      30.01R
N.O. LAKEFRONT SUNNY     83  74  74 E14       30.01S
N.O. DOWNTOWN*   N/A     82  72  69 NE9       30.01S
SLIDELL        MOSUNNY   83  72  69 NE5       30.01S
BATON ROUGE    MOSUNNY   82  73  74 NE7       30.02R
BOOTHVILLE     MOSUNNY   86  77  74 E9        30.00R HX  97
BELLE CHASSE   PTSUNNY   84  77  79 E7        30.00R
BOGALUSA*        N/A     79  70  74 NE5       30.05S
GALLIANO*      NOT AVBL
NEW ROADS*       N/A     81  73  75 MISG      30.02S
GONZALES*      PTSUNNY   79  76  91 NE5       30.02R
HAMMOND*       CLOUDY    81  72  74 NE5       30.04S
HOUMA*         MOSUNNY   82  75  78 N9        29.99S
PORT FOURCHON* PTSUNNY   86  75  70 E8G14     30.00S HX  95

$$

MSZ070-080>082-271500-
SOUTHERN MISSISSIPPI

CITY           SKY/WX    TMP DP  RH WIND       PRES   REMARKS
MCCOMB         SUNNY     79  69  71 E3        30.05S
GULFPORT       SUNNY     83  72  69 NE5       30.01S
BILOXI         SUNNY     83  71  67 NE6       30.02R
PASCAGOULA     SUNNY     80  72  76 NE5       30.03R
STENNIS ARPT*  SUNNY    N/A N/A N/A CALM      30.02S

$$

COASTAL OBSERVATIONS
LAKE AND NEARSHORE STATIONS

STATION/POSITION TIME  TEMP    WIND        PRES    WAVE
                       AIR SEA DIR/SP/G            HT/PER
                 (UTC) (F)     (DEG/KT/KT) (MB)    (FT/S)
PASCAGOULA       1400   84      50/  8/ 10 1016.0
WAVELAND YACHT   1400   81      50/  6/  8 1015.8
GRAND ISLE       1400   84 84   90/  7/ 10 1016.1
SOUTHWEST PASS   1400   87 87   90/ 14/ 15 1015.7
NEW CANAL        1400   82 83   70/ 15/ 16 1016.4
SHELL BEACH      1400   78 80  110/  4/  6 1016.1

OFFSHORE STATIONS

STATION/POSITION TIME  TEMP    WIND        PRES    WAVE
                       AIR SEA DIR/SP/G            HT/PER
                 (UTC) (F)     (DEG/KT/KT) (MB)    (FT/S)
64 S DAUPHIN ISL 1350   85 86   70/ 14/ 17 1015.8

$$




USA.gov is the U.S. government's official web portal to all federal, state and local government web resources and services.